TimeAKST,TemperatureF,Dew PointF,Humidity,Sea Level PressureIn,VisibilityMPH,Wind Direction,Wind SpeedMPH,Gust SpeedMPH,PrecipitationIn,Events,Conditions,WindDirDegrees,DateUTC
12:53 AM,18.0,1.9,50,29.85,10.0,North,19.6,33.4,N/A,,Unknown,10,2013-11-21 09:53:00
1:53 AM,17.1,1.9,52,29.84,10.0,NNE,17.3,29.9,N/A,,Unknown,20,2013-11-21 10:53:00
3:53 AM,15.1,3.0,59,29.80,10.0,North,21.9,36.8,N/A,,Unknown,10,2013-11-21 12:53:00
4:53 AM,15.1,3.9,61,29.78,10.0,North,20.7,33.4,N/A,,Unknown,10,2013-11-21 13:53:00
5:53 AM,15.1,5.0,64,29.77,10.0,NNE,18.4,35.7,N/A,,Unknown,20,2013-11-21 14:53:00
6:53 AM,16.0,5.0,62,29.75,10.0,NNE,20.7,35.7,N/A,,Unknown,30,2013-11-21 15:53:00
7:53 AM,16.0,5.0,62,29.74,10.0,NNE,17.3,28.8,N/A,,Unknown,30,2013-11-21 16:53:00
8:53 AM,16.0,5.0,62,29.72,10.0,North,18.4,27.6,N/A,,Unknown,10,2013-11-21 17:53:00
9:53 AM,16.0,5.0,62,29.70,10.0,NNE,17.3,31.1,N/A,,Unknown,20,2013-11-21 18:53:00
10:53 AM,16.0,5.0,62,29.70,10.0,North,13.8,23.0,N/A,,Unknown,10,2013-11-21 19:53:00
11:53 AM,16.0,8.1,71,29.67,10.0,North,17.3,24.2,N/A,,Unknown,360,2013-11-21 20:53:00
12:53 PM,18.0,9.0,68,29.60,10.0,North,9.2,19.6,N/A,,Unknown,10,2013-11-21 21:53:00
1:53 PM,19.9,12.9,74,29.56,8.0,North,5.8,-,0.00,Snow,Light Snow,360,2013-11-21 22:53:00
2:01 PM,19.4,14.0,80,29.55,2.5,North,8.1,-,0.00,Snow,Light Snow,350,2013-11-21 23:01:00
2:18 PM,19.4,15.8,86,29.53,1.2,North,8.1,-,0.00,Snow,Light Snow,350,2013-11-21 23:18:00
2:27 PM,19.4,15.8,86,29.53,0.8,NNE,4.6,-,0.00,Snow,Light Snow,20,2013-11-21 23:27:00
2:37 PM,19.4,15.8,86,29.51,0.5,Variable,3.5,-,0.00,Fog-Snow,Snow,0,2013-11-21 23:37:00
2:53 PM,19.9,17.1,89,29.50,0.5,Calm,Calm,-,0.00,Fog-Snow,Snow,0,2013-11-21 23:53:00
3:09 PM,19.4,17.6,93,29.49,0.8,Calm,Calm,-,0.00,Snow,Light Snow,0,2013-11-22 00:09:00
3:19 PM,21.2,17.6,86,29.48,1.0,Calm,Calm,-,0.00,Snow,Light Snow,0,2013-11-22 00:19:00
3:53 PM,21.0,19.0,92,29.44,0.8,Calm,Calm,-,0.00,Snow,Light Snow,0,2013-11-22 00:53:00
4:06 PM,21.2,19.4,93,29.44,1.2,Variable,3.5,-,0.00,Snow,Light Snow,0,2013-11-22 01:06:00
4:13 PM,21.2,19.4,93,29.44,3.0,Calm,Calm,-,0.00,Snow,Light Snow,0,2013-11-22 01:13:00
4:28 PM,23.0,21.2,93,29.42,1.8,Calm,Calm,-,0.00,Snow,Light Snow,0,2013-11-22 01:28:00
4:35 PM,23.0,21.2,93,29.41,0.8,NW,4.6,-,0.00,Snow,Light Snow,310,2013-11-22 01:35:00
4:45 PM,23.0,21.2,93,29.40,0.5,Calm,Calm,-,0.00,Fog-Snow,Snow,0,2013-11-22 01:45:00
4:53 PM,24.1,21.9,91,29.40,0.5,Calm,Calm,-,0.00,Fog-Snow,Snow,0,2013-11-22 01:53:00
5:08 PM,24.8,21.2,86,29.39,1.0,Calm,Calm,-,0.00,Snow,Light Snow,0,2013-11-22 02:08:00
5:40 PM,24.8,24.8,100,29.34,0.8,North,3.5,-,0.00,Snow,Light Snow,350,2013-11-22 02:40:00
5:49 PM,26.6,24.8,93,29.33,1.0,NE,5.8,-,0.00,Snow,Light Snow,50,2013-11-22 02:49:00
5:50 PM,26.1,24.1,92,29.34,1.0,NE,4.6,-,0.00,Snow,Light Snow,40,2013-11-22 02:50:00
5:54 PM,26.6,24.8,93,29.33,1.2,Calm,Calm,-,0.00,Snow,Light Snow,0,2013-11-22 02:54:00
6:30 PM,28.4,26.6,93,29.30,2.5,NW,3.5,-,0.00,Snow,Light Snow,320,2013-11-22 03:30:00
6:33 PM,28.4,26.6,93,29.29,3.0,NW,3.5,-,0.00,Snow,Light Snow,320,2013-11-22 03:33:00
6:53 PM,30.0,28.0,92,29.28,10.0,Calm,Calm,-,0.00,,Overcast,0,2013-11-22 03:53:00
7:00 PM,30.2,28.4,93,29.28,9.0,Calm,Calm,-,0.00,Rain,Light Freezing Rain,0,2013-11-22 04:00:00
7:19 PM,32.0,30.2,93,29.28,4.0,Calm,Calm,-,0.00,Rain,Light Freezing Rain,0,2013-11-22 04:19:00
7:29 PM,32.0,30.2,93,29.28,5.0,Calm,Calm,-,N/A,Rain,Light Freezing Rain,0,2013-11-22 04:29:00
7:36 PM,32.0,30.2,93,29.28,5.0,Calm,Calm,-,N/A,Rain,Light Freezing Rain,0,2013-11-22 04:36:00
7:53 PM,33.1,32.0,96,29.27,4.0,Calm,Calm,-,N/A,Rain,Light Freezing Rain,0,2013-11-22 04:53:00
8:05 PM,33.8,32.0,93,29.25,4.0,Calm,Calm,-,0.02,Rain,Light Freezing Rain,0,2013-11-22 05:05:00
8:12 PM,33.8,32.0,93,29.25,5.0,West,5.8,-,0.04,Rain,Rain,270,2013-11-22 05:12:00
8:29 PM,33.8,33.8,100,29.25,6.0,Calm,Calm,-,0.07,Rain,Rain,0,2013-11-22 05:29:00
8:53 PM,34.0,33.1,96,29.24,6.0,NNE,3.5,-,0.13,Rain,Light Rain,30,2013-11-22 05:53:00
9:53 PM,36.0,34.0,93,29.22,6.0,ESE,4.6,-,0.21,Rain,Rain,120,2013-11-22 06:53:00
10:29 PM,35.6,33.8,93,29.20,4.0,WSW,4.6,-,0.13,Rain,Rain,240,2013-11-22 07:29:00
10:39 PM,35.6,33.8,93,29.20,4.0,SSW,3.5,-,0.16,Rain,Rain,200,2013-11-22 07:39:00
10:53 PM,35.1,34.0,96,29.20,4.0,SE,3.5,-,0.20,Rain,Rain,130,2013-11-22 07:53:00
11:20 PM,33.8,33.8,100,29.19,4.0,ENE,3.5,-,0.07,Rain,Rain,60,2013-11-22 08:20:00
11:40 PM,33.8,33.8,100,29.19,6.0,Calm,Calm,-,0.10,Rain,Light Rain,0,2013-11-22 08:40:00
11:53 PM,34.0,33.1,96,29.19,3.0,Calm,Calm,-,0.12,Rain,Rain,0,2013-11-22 08:53:00